Regional Weather Roundup
Issued by NWS

Home | Current Version | Previous Version | Text Only | Print | Product List | Glossary On
Versions: 1 2 3 4 5 6 7 8 9 10 11 12 13 14 15 16 17 18 19 20 21 22 23 24 25 26 27 28 29 30 31 32 33 34 35 36 37 38 39 40 41 42 43 44 45 46 47 48 49 50
000
ASCA42 TJSJ 040710
RWRPR
PUERTO RICO/U.S. VIRGIN ISLANDS HOURLY WEATHER ROUNDUP
NATIONAL WEATHER SERVICE SAN JUAN PR
300 AM AST SAT JUL 04 2015

PRZ001-004-040800-
PUERTO RICO

CITY           SKY/WX    TMP DP  RH WIND       PRES   REMARKS
SAN JUAN LMM   MOCLDY    81  75  83 E13       30.05S
PONCE          PTCLDY    82  72  69 E12       29.97S
CEIBA          CLOUDY    82  75  78 NE7       30.06F
$$

PRZ006-007-040800-
U.S. VIRGIN ISLANDS

CITY           SKY/WX    TMP DP  RH WIND       PRES   REMARKS
CHARLOTTE AMA  CLOUDY    82  73  74 E15       30.04F
CHRISTIANSTED  CLOUDY    81  72  74 E13       30.04S
$$

HOURLY WEATHER ROUNDUP FOR THE NEWS MEDIA

CITY           SKY/WX    TMP DP  RH WIND       PRES   REMARKS
ORLANDO        CLOUDY    76  71  85 CALM      30.08F
NEW YORK       CLOUDY    71  59  65 CALM      29.98F
NEWARK         LGT RAIN  71  62  73 SE6       29.96F
CHICAGO        PTCLDY    62  54  74 CALM      29.95F
HARTFORD       PTCLDY    60  58  92 CALM      30.00F
BOSTON         PTCLDY    62  56  80 S6        30.00
DALLAS         MOCLDY    83  71  67 SW7       29.93S
PHILADELPHIA   CLOUDY    71  65  81 E3        29.94F
LOS ANGELES    CLOUDY    62  59  90 W9        29.90S
WASHINGTON DC  CLOUDY    69  66  90 CALM      29.90F



USA.gov is the U.S. government's official web portal to all federal, state and local government web resources and services.